User: anonymous   Login
Location: Unspecified
(0.0000°N, 0.0000°E)
Time: 01:58:42
(UTC+00:00)
Language:

METEOR M2 - Orbit

View from above orbital plane
View from above orbital plane
View from above satellite
View from above satellite

Ground track
Ground track

The orbit data is extracted from the following two-line orbital elements,

1 40069U 14037A   18055.44400242 -.00000012  00000-0  14537-4 0  9991
2 40069  98.6186 109.4580 0005108 192.6294 167.4755 14.20649981188379
Epoch (UTC): 24 February 2018 10:39:21
Eccentricity: 0.0005108
inclination: 98.6186°
perigee height: 819 km
apogee height: 827 km
right ascension of ascending node: 109.4580°
argument of perigee: 192.6294°
revolutions per day: 14.20649981
mean anomaly at epoch: 167.4755°
orbit number at epoch: 18837

The dashed part of the orbit path shows where the satellite is in the earth's shadow,  

DLR